Wainwright, AK

7:38 AM AKDT on September 23, 2017 (GMT -0800)
Wainwright

Weather History for PAWI - October, 2013

Change the Weather History Date:

Wednesday, October 2, 2013

  Actual Average (PABR) Record (PABR)
Temperature  
Mean Temperature 28 °F -  
Max Temperature 30 °F 26 °F 41 °F (1977)
Min Temperature 26 °F 19 °F 3 °F (1931)
Degree Days  
Heating Degree Days 37    
Moisture  
Dew Point 25 °F    
Average Humidity 89    
Maximum Humidity 93    
Minimum Humidity 78    
Precipitation  
Precipitation 0.00 in - - ()
Sea Level Pressure  
Sea Level Pressure 30.09 in    
Wind  
Wind Speed 8 mph (ENE)    
Max Wind Speed 10 mph    
Max Gust Speed -    
Visibility 9 miles    
Events      
Averages and records for this station are not official NWS values.
T = Trace of Precipitation, MM = Missing Value Source: NWS Daily Summary

Daily Weather History Graph

Daily Weather History Graph

Search for Another Location

Airport or City:

Trip Planner

Search our weather history database for the weather conditions in past years. The results will help you decide how hot, cold, wet, or windy it might be!

Date:

Astronomy

Oct. 02, 2013 Rise Set
Actual Time 9:02 AM AKDT 7:53 PM AKDT
Civil Twilight 8:00 AM AKDT 8:55 PM AKDT
Nautical Twilight 6:44 AM AKDT 10:10 PM AKDT
Astronomical Twilight 5:16 AM AKDT 11:37 PM AKDT
Moon 5:50 AM AKDT (10/2) 7:13 PM AKDT (10/2)
Length of Visible Light 12h 55m
Length of Day
10h 50m
Waning Crescent, 5% of the Moon is Illuminated
Oct 2
Waning Crescent
Oct 4
New
Oct 11
First Quarter
Oct 18
Full
Oct 26
Last Quarter

Hourly Weather History & Observations

Time (AKDT) Temp. Windchill Dew Point Humidity Pressure Visibility Wind Dir Wind Speed Gust Speed Precip Events Conditions
12:53 AM 26.1 °F 16.8 °F 19.9 °F 78% 30.17 in 10.0 mi ENE 9.2 mph - N/A   Overcast
1:53 AM 26.1 °F 18.4 °F 21.0 °F 81% 30.16 in 10.0 mi NE 6.9 mph - N/A   Overcast
2:53 AM 26.1 °F 18.4 °F 21.9 °F 84% 30.15 in 10.0 mi ENE 6.9 mph - N/A   Overcast
3:53 AM 26.1 °F 16.2 °F 23.0 °F 88% 30.14 in 9.0 mi ENE 10.4 mph - N/A   Overcast
4:01 AM 26.6 °F 17.5 °F 23.0 °F 86% 30.13 in 7.0 mi ENE 9.2 mph - N/A   Overcast
4:53 AM 26.1 °F 16.8 °F 23.0 °F 88% 30.13 in 10.0 mi ENE 9.2 mph - N/A   Overcast
5:04 AM 26.6 °F 18.2 °F 23.0 °F 86% 30.13 in 10.0 mi ENE 8.1 mph - N/A   Overcast
5:53 AM 26.1 °F 17.6 °F 23.0 °F 88% 30.13 in 10.0 mi ENE 8.1 mph - N/A   Overcast
6:15 AM 26.6 °F 19.1 °F 23.0 °F 86% 30.12 in 10.0 mi ENE 6.9 mph - N/A   Overcast
6:53 AM 26.1 °F 18.4 °F 21.9 °F 84% 30.12 in 10.0 mi ENE 6.9 mph - N/A   Overcast
7:53 AM 26.1 °F 18.4 °F 23.0 °F 88% 30.12 in 10.0 mi ENE 6.9 mph - N/A   Overcast
8:13 AM 26.6 °F 18.2 °F 23.0 °F 86% 30.11 in 10.0 mi ENE 8.1 mph - N/A   Overcast
8:53 AM 27.0 °F 19.5 °F 24.1 °F 89% 30.11 in 10.0 mi ENE 6.9 mph - N/A   Overcast
9:11 AM 26.6 °F 19.1 °F 24.8 °F 93% 30.11 in 10.0 mi ENE 6.9 mph - N/A   Overcast
9:33 AM 26.6 °F 18.2 °F 24.8 °F 93% 30.10 in 10.0 mi East 8.1 mph - N/A   Overcast
9:42 AM 26.6 °F 19.1 °F 24.8 °F 93% 30.10 in 10.0 mi ENE 6.9 mph - N/A   Overcast
9:53 AM 27.0 °F 19.5 °F 24.1 °F 89% 30.11 in 10.0 mi East 6.9 mph - N/A   Overcast
10:00 AM 26.6 °F 19.1 °F 24.8 °F 93% 30.10 in 10.0 mi ENE 6.9 mph - N/A   Overcast
10:53 AM 28.0 °F 20.0 °F 25.0 °F 88% 30.10 in 10.0 mi East 8.1 mph - N/A   Overcast
11:53 AM 28.0 °F 20.0 °F 26.1 °F 92% 30.10 in 10.0 mi East 8.1 mph - N/A   Overcast
12:53 PM 28.9 °F 20.4 °F 26.1 °F 89% 30.09 in 10.0 mi ESE 9.2 mph - N/A   Overcast
1:26 PM 28.4 °F 20.4 °F 26.6 °F 93% 30.09 in 10.0 mi East 8.1 mph - N/A   Overcast
1:53 PM 28.9 °F 19.8 °F 26.1 °F 89% 30.09 in 10.0 mi East 10.4 mph - N/A   Overcast
2:53 PM 28.9 °F 19.8 °F 26.1 °F 89% 30.09 in 10.0 mi East 10.4 mph - N/A   Overcast
3:53 PM 30.0 °F 21.7 °F 26.1 °F 85% 30.08 in 10.0 mi East 9.2 mph - N/A   Overcast
4:53 PM 28.9 °F 20.4 °F 26.1 °F 89% 30.07 in 10.0 mi East 9.2 mph - N/A   Overcast
5:53 PM 28.9 °F 21.1 °F 26.1 °F 89% 30.07 in 10.0 mi East 8.1 mph - N/A   Overcast
6:33 PM 28.4 °F 21.2 °F 26.6 °F 93% 30.07 in 10.0 mi East 6.9 mph - N/A   Overcast
6:53 PM 28.9 °F 21.1 °F 26.1 °F 89% 30.08 in 6.0 mi East 8.1 mph - N/A   Overcast
6:56 PM 28.4 °F 19.7 °F 26.6 °F 93% 30.07 in 1.5 mi East 9.2 mph - N/A   Overcast
6:59 PM 28.4 °F 19.7 °F 26.6 °F 93% 30.07 in 0.8 mi East 9.2 mph - N/A   Overcast
7:24 PM 28.4 °F 21.2 °F 26.6 °F 93% 30.07 in 6.0 mi East 6.9 mph - N/A   Overcast
7:46 PM 28.4 °F 22.2 °F 26.6 °F 93% 30.07 in 10.0 mi East 5.8 mph - N/A   Overcast
7:53 PM 28.9 °F 23.9 °F 26.1 °F 89% 30.07 in 10.0 mi ENE 4.6 mph - N/A   Overcast
8:06 PM 28.4 °F 21.2 °F 26.6 °F 93% 30.06 in 10.0 mi ENE 6.9 mph - N/A   Overcast
8:33 PM 28.4 °F 21.2 °F 26.6 °F 93% 30.07 in 10.0 mi ENE 6.9 mph - N/A   Overcast
8:45 PM 28.4 °F 21.2 °F 26.6 °F 93% 30.07 in 10.0 mi East 6.9 mph - N/A   Overcast
8:51 PM 28.4 °F 19.7 °F 26.6 °F 93% 30.07 in 9.0 mi ENE 9.2 mph - N/A   Overcast
8:53 PM 28.0 °F 18.6 °F 26.1 °F 92% 30.07 in 9.0 mi East 10.4 mph - N/A   Overcast
9:07 PM 28.4 °F 19.7 °F 24.8 °F 86% 30.06 in 10.0 mi East 9.2 mph - N/A   Overcast
9:15 PM 28.4 °F 20.4 °F 24.8 °F 86% 30.07 in 10.0 mi East 8.1 mph - N/A   Overcast
9:53 PM 28.0 °F 19.3 °F 25.0 °F 88% 30.06 in 10.0 mi East 9.2 mph - N/A   Overcast
10:45 PM 28.4 °F 22.2 °F 24.8 °F 86% 30.06 in 10.0 mi ENE 5.8 mph - N/A   Overcast
10:53 PM 28.0 °F 20.8 °F 25.0 °F 88% 30.06 in 10.0 mi ENE 6.9 mph - N/A   Overcast
11:14 PM 28.4 °F 20.4 °F 26.6 °F 93% 30.05 in 10.0 mi ENE 8.1 mph - N/A   Overcast
11:31 PM 28.4 °F 21.2 °F 26.6 °F 93% 30.05 in 10.0 mi East 6.9 mph - N/A   Overcast
11:53 PM 28.9 °F 21.9 °F 26.1 °F 89% 30.06 in 10.0 mi East 6.9 mph - N/A   Overcast